ECMWFFLT2_500_rhum_051.txt.gz
RH
7 6 6 6 6 5 5 5 5 5 5 5 5 5 5 5 5 4 5 5 5 4 4 3 2 3 1 19 67 98 98 90 83 86 90 76 56 55 66 67 63 69 69 77 95 98 89 78 85 99 101 99
7 7 7 6 6 6 6 5 5 5 6 6 6 6 6 6 6 5 5 5 5 4 3 4 2 2 3 7 42 84 99 101 100 98 101 99 91 85 88 88 81 78 69 68 89 100 97 85 75 85 100 100
8 7 7 7 7 6 6 6 6 6 6 7 7 7 7 7 7 6 6 5 5 6 4 4 4 2 3 3 20 62 92 99 101 101 101 99 99 101 100 100 98 94 85 74 85 98 101 97 81 73 88 101
8 8 8 7 7 7 7 7 7 7 7 7 8 8 8 8 8 7 6 6 6 6 6 4 4 3 2 1 5 39 80 94 100 101 99 102 97 97 100 99 101 100 98 92 90 95 98 99 92 77 73 89
9 8 8 8 8 8 8 8 8 8 8 8 9 8 10 10 10 10 8 7 7 6 7 6 4 3 3 3 -1 19 66 86 94 104 98 101 100 94 98 100 100 99 100 102 97 90 90 91 93 90 75 74
9 9 8 8 8 9 9 9 9 9 9 9 9 10 10 12 12 12 10 8 7 7 7 7 5 4 2 4 -1 4 53 82 78 95 104 99 102 99 99 101 99 98 99 101 98 88 84 84 88 94 88 75
10 9 9 9 9 10 9 10 10 10 10 10 10 11 11 13 15 14 13 10 8 8 8 8 6 6 3 3 4 -4 33 85 79 76 97 101 101 101 100 101 100 98 99 99 97 95 88 81 84 93 95 86
10 10 10 10 11 11 11 11 11 11 11 11 11 12 13 13 16 17 15 13 10 8 8 10 7 6 5 0 5 -2 7 67 94 75 81 99 102 100 101 100 100 99 99 100 98 99 95 85 83 89 94 94
11 11 11 11 12 12 12 13 13 13 12 13 13 13 14 15 16 18 18 16 12 10 9 10 9 5 6 2 2 4 -4 27 84 95 83 94 103 99 100 101 100 99 99 100 99 99 98 93 87 83 84 91
13 12 12 13 14 14 14 15 15 14 15 15 16 16 16 17 18 20 20 18 14 11 11 10 11 6 5 5 0 3 1 1 41 90 96 89 100 101 98 102 101 99 99 99 100 99 99 98 94 86 78 81
15 14 14 15 16 17 17 18 17 16 17 18 19 19 19 19 20 23 22 21 17 13 12 11 10 9 4 4 2 0 3 0 5 52 93 88 90 103 100 100 102 100 99 99 100 99 99 99 99 96 87 82
18 16 16 18 19 21 21 20 19 18 19 20 21 21 21 22 21 24 25 22 20 15 13 12 11 9 6 2 3 2 0 4 -2 13 68 91 87 98 103 100 101 101 99 99 100 99 99 100 99 100 98 93
22 20 19 21 22 23 24 22 21 20 21 22 23 24 23 24 24 25 27 25 22 19 14 13 13 9 7 4 1 4 0 3 4 -2 32 82 95 96 102 102 100 101 101 99 100 99 99 100 100 99 100 99
24 22 21 22 24 26 26 25 23 22 23 24 25 26 26 26 27 27 28 28 25 21 17 14 14 11 6 6 1 3 3 -0 5 0 7 56 96 100 98 101 101 100 102 100 98 99 99 99 100 99 99 101
26 23 23 25 27 28 28 27 26 25 25 27 28 28 30 29 30 30 29 30 28 23 20 16 14 13 7 5 3 1 5 2 2 4 0 24 75 100 99 100 101 100 101 101 99 98 100 100 100 100 99 100
27 25 25 27 29 29 30 29 28 28 28 29 31 31 32 34 33 33 32 32 32 27 22 19 15 14 9 5 4 2 3 4 1 4 2 5 40 82 98 101 100 100 101 100 100 98 100 100 99 100 100 99
28 27 28 29 30 30 30 30 30 30 31 32 33 35 35 37 37 36 36 34 34 31 24 21 17 14 11 6 3 3 2 4 3 2 4 1 12 46 80 99 101 99 101 100 100 99 99 101 100 99 100 100
30 30 30 30 30 30 30 30 31 32 33 35 36 38 39 40 41 40 39 38 36 35 29 22 19 15 11 8 3 3 3 3 4 2 3 4 3 15 43 77 99 101 99 101 100 99 100 100 100 100 99 100
33 32 31 31 30 30 30 30 32 34 35 38 39 40 43 43 45 45 42 41 40 38 33 25 20 17 12 9 5 3 3 3 3 3 3 3 3 4 13 39 78 101 100 99 102 99 100 100 98 100 100 100
36 34 32 32 31 29 30 31 34 36 38 41 44 43 45 47 48 49 46 44 44 42 36 28 21 18 13 9 6 3 3 3 3 3 3 3 3 3 4 11 43 88 103 99 102 101 99 101 99 99 100 100
36 35 33 32 31 31 30 33 35 39 43 46 48 47 47 50 52 53 52 48 48 46 40 31 23 18 15 10 7 4 3 4 3 3 3 4 4 3 4 4 15 59 97 101 100 102 100 100 100 99 100 100
37 36 35 33 32 32 31 33 37 41 47 50 51 51 49 52 55 57 56 53 51 51 44 35 26 18 15 11 7 5 3 4 4 3 3 3 4 3 3 4 5 30 75 98 100 101 101 100 100 100 99 100
38 37 36 35 33 33 33 33 37 42 48 54 55 54 53 55 58 61 61 58 56 55 49 39 29 19 15 12 8 5 3 4 5 3 4 3 4 5 3 4 5 13 45 77 92 97 100 100 100 100 100 100
38 37 36 35 34 32 32 31 34 42 49 56 59 56 55 58 62 66 67 65 61 59 53 43 33 22 14 12 9 6 4 4 5 4 4 4 3 5 4 4 5 8 21 47 71 87 96 100 100 100 100 100
36 35 32 30 30 28 28 30 33 42 50 58 62 58 57 61 66 71 73 71 67 62 57 47 36 25 15 11 9 7 5 4 5 6 4 4 4 4 5 4 5 7 10 24 47 68 83 93 99 101 100 100
32 28 25 22 22 21 23 27 32 40 52 60 63 58 57 62 70 75 77 76 72 66 60 50 40 30 17 11 9 7 6 5 5 6 6 5 5 4 5 5 4 5 7 12 26 48 65 78 91 99 99 100
26 21 18 15 14 14 18 24 29 36 50 61 62 57 56 63 73 80 82 79 74 70 63 54 43 34 21 11 8 7 6 5 5 6 7 6 6 5 4 5 5 5 6 7 14 30 45 57 76 89 95 98
19 16 12 10 9 10 13 20 25 32 48 62 61 55 55 64 77 85 87 83 77 72 67 58 46 37 25 13 8 7 6 5 5 6 7 7 8 7 6 5 5 4 5 6 7 15 26 40 55 70 84 94
14 12 9 8 8 8 10 16 21 28 45 61 61 55 54 63 79 90 92 87 80 75 70 62 50 40 29 16 9 7 6 6 6 6 7 8 8 9 9 7 5 5 5 5 5 7 13 24 33 48 69 83
11 9 8 8 7 7 8 12 18 26 43 60 61 55 54 62 80 94 95 90 83 78 74 67 54 43 33 20 10 7 6 6 6 6 7 8 9 9 11 11 9 6 5 4 5 5 7 11 19 32 50 63
9 8 7 7 6 6 7 10 17 26 44 62 63 57 56 60 79 97 99 92 85 80 77 71 59 46 36 24 13 7 6 6 6 7 7 8 9 10 10 12 12 10 8 5 4 5 5 7 11 19 29 43

ECMWFFLT2_500_rhum_054.txt.gz
RH
9 10 10 10 10 9 9 8 8 7 7 7 6 6 6 6 5 5 5 4 4 4 4 3 4 3 3 4 4 4 4 4 4 3 3 2 2 2 1 2 7 13 11 3 0 18 68 103 99 91 80 72
10 11 11 11 10 9 9 8 8 7 7 7 6 6 6 6 6 5 5 5 5 4 4 4 4 4 4 4 4 4 4 5 5 3 3 3 2 2 2 3 8 18 19 12 3 2 42 95 102 97 92 79
11 12 12 12 10 9 9 8 8 8 7 7 7 7 6 7 6 6 6 6 6 5 5 5 4 4 4 5 4 5 5 5 5 5 4 3 3 2 2 3 15 33 39 33 18 11 35 82 104 99 99 93
13 13 12 11 10 10 10 9 9 8 8 8 8 8 7 7 7 7 7 6 6 6 6 5 5 5 5 5 5 6 5 6 6 6 4 4 3 3 2 2 30 65 73 72 51 30 33 58 96 103 97 102
14 14 12 11 11 10 10 10 9 9 9 9 9 9 8 8 8 8 7 7 7 6 7 6 6 6 6 6 6 7 6 7 6 7 5 5 3 2 4 -1 38 94 97 97 79 45 30 24 63 103 99 100
15 14 13 12 11 11 11 11 10 10 10 10 9 9 9 9 9 9 8 8 7 7 7 7 7 7 7 7 7 8 8 8 7 8 6 5 5 2 6 -3 22 90 103 97 94 72 58 27 23 74 103 98
15 14 13 13 12 12 13 12 11 11 11 11 10 10 10 10 9 9 8 8 7 7 7 6 7 8 8 9 10 11 10 10 8 8 8 5 6 2 5 1 1 58 102 99 100 97 90 66 22 31 84 103
16 15 15 15 15 14 14 13 13 12 12 12 12 12 12 11 10 9 8 7 7 6 7 6 7 8 9 11 12 14 13 13 11 9 10 6 7 4 2 6 -4 22 84 103 99 103 99 94 63 21 44 91
17 17 17 17 17 17 17 16 14 14 14 13 13 14 13 12 10 9 8 7 7 6 6 6 7 8 9 12 14 17 17 15 15 11 11 9 6 7 2 5 2 0 49 100 99 100 102 98 97 58 25 58
19 20 19 20 19 19 19 17 16 16 15 15 15 15 14 13 11 10 9 8 7 6 7 7 7 10 10 13 16 18 21 18 17 14 12 12 7 6 5 1 6 -2 16 82 105 95 103 98 101 94 49 35
22 22 22 22 21 20 19 18 18 17 17 17 16 16 14 13 12 10 10 8 8 7 6 7 8 11 13 15 19 21 24 22 19 18 14 13 10 5 7 2 3 3 -1 50 102 98 98 102 96 103 85 49
25 24 24 23 22 21 20 20 19 19 19 19 17 16 15 13 12 11 10 8 7 7 6 8 9 12 15 17 21 24 26 26 21 20 17 13 13 6 5 5 1 4 -3 18 82 104 95 100 98 99 102 80
26 25 24 23 23 21 21 21 21 21 21 19 18 16 15 13 12 10 9 8 6 7 7 8 10 13 17 20 23 28 29 29 25 21 20 15 12 9 5 6 2 3 1 0 53 103 99 96 100 98 102 98
27 25 24 24 23 21 21 22 22 23 21 19 17 15 14 11 10 9 7 7 6 6 7 8 11 15 19 23 26 32 34 31 29 24 22 18 12 10 6 6 3 2 3 -4 26 87 103 95 98 99 100 102
26 24 24 22 20 21 23 24 24 22 19 17 16 13 11 9 8 7 6 6 6 6 7 8 12 17 20 26 30 35 38 34 31 27 23 19 13 11 8 6 5 1 4 -2 6 61 98 96 97 99 100 102
23 22 21 20 21 23 25 24 23 20 17 15 13 11 9 8 7 6 6 6 6 6 6 9 11 17 21 27 35 39 42 38 33 31 25 20 14 11 9 6 5 1 2 2 -2 32 81 97 97 98 100 101
20 19 20 22 24 26 25 23 21 18 16 14 11 10 8 7 7 6 7 6 6 6 6 8 11 15 21 29 39 45 46 41 36 34 27 21 15 12 11 6 5 3 0 3 -2 10 53 90 99 97 99 101
20 23 24 26 27 26 25 23 21 17 15 13 10 9 8 7 7 6 7 6 5 6 6 7 10 13 21 32 43 51 51 45 40 37 29 21 17 12 11 8 4 4 0 2 2 -0 23 66 95 99 97 99
27 29 29 28 28 27 26 22 19 16 13 11 9 8 8 7 7 7 6 6 5 5 6 7 9 12 20 34 47 56 56 50 43 39 32 22 18 14 11 9 4 3 2 1 3 1 4 32 72 95 99 98
32 32 30 29 29 27 24 20 17 15 12 10 9 8 8 7 7 7 6 6 5 5 6 7 8 12 21 36 51 61 61 54 47 41 34 24 18 16 12 9 5 2 2 2 2 2 1 9 37 75 98 99
34 32 32 31 30 26 21 18 15 13 12 10 9 8 7 8 7 7 6 5 5 5 6 7 9 12 22 39 56 67 67 59 51 43 35 26 19 17 13 9 5 3 2 2 3 2 2 3 15 51 90 100
34 32 32 31 28 25 20 17 14 12 11 9 9 8 7 8 8 7 7 6 5 5 6 7 9 13 23 41 60 72 72 63 54 46 37 29 21 17 14 9 5 3 2 2 3 2 2 3 7 35 81 100
35 33 32 31 28 24 19 16 14 12 10 9 9 8 8 8 8 8 6 6 5 5 7 7 9 15 24 42 65 77 75 67 57 48 40 31 22 17 14 10 6 3 3 2 2 3 2 2 4 22 68 100
37 35 33 31 27 22 18 15 13 11 10 10 9 9 9 9 8 8 6 5 5 5 7 8 10 16 24 43 70 82 78 69 59 50 43 35 24 17 14 10 6 3 3 3 2 3 2 2 3 10 52 98
38 37 34 30 25 20 16 14 12 11 10 10 10 10 10 10 9 8 6 5 4 6 8 10 12 16 23 44 73 86 80 71 61 52 46 39 26 16 14 10 7 4 3 4 3 3 3 2 3 3 34 87
40 37 33 27 23 19 15 13 11 10 10 10 10 11 11 10 10 7 6 5 4 6 10 12 16 18 22 45 77 88 82 73 63 56 49 42 29 16 13 11 7 5 3 5 4 4 4 2 4 1 16 63
40 36 31 25 21 18 14 13 12 10 11 11 11 12 12 10 9 8 6 5 4 6 11 15 20 20 20 44 79 90 83 75 65 59 53 45 32 16 12 11 7 5 3 5 5 4 5 2 4 3 5 33
39 33 28 24 19 17 15 13 12 12 12 12 13 12 12 11 9 8 5 4 5 7 13 19 21 20 19 42 79 91 85 78 68 62 57 49 37 19 11 10 7 6 4 4 6 6 6 4 3 4 4 13
35 30 25 22 19 16 15 14 13 14 14 13 13 12 11 11 9 7 5 5 5 7 16 25 25 21 19 40 78 91 86 81 71 66 62 53 41 24 11 10 8 6 4 4 6 7 7 6 5 4 4 7
29 25 22 20 18 17 16 16 16 16 16 14 14 13 11 10 9 7 5 5 6 8 17 28 29 22 18 40 78 92 88 84 75 71 67 57 46 29 13 9 8 6 5 5 6 8 8 7 7 6 5 6
24 22 21 19 18 18 17 18 18 17 16 15 14 12 12 11 8 7 5 4 6 9 19 33 33 23 19 42 79 93 89 86 79 75 73 62 49 33 16 9 8 7 5 5 6 7 8 8 8 7 6 7

ECMWFFLT2_500_rhum_057.txt.gz
RH
6 6 6 7 6 6 7 8 9 10 11 11 11 10 10 9 9 8 8 7 7 7 6 6 6 5 5 4 4 3 3 3 3 3 3 3 3 3 3 3 2 2 2 2 2 1 2 1 2 2 1 3
7 7 7 7 7 7 8 10 11 12 12 12 11 10 10 9 9 9 8 8 7 7 7 7 6 5 4 4 3 3 3 3 3 3 3 3 3 3 3 3 3 2 2 2 2 2 2 2 2 2 2 2
8 8 8 8 7 7 9 11 13 13 13 12 11 10 10 10 10 9 9 8 8 8 7 6 6 5 4 4 3 3 3 3 3 3 3 4 4 4 4 3 3 3 3 2 2 2 2 2 2 2 3 1
9 9 8 8 8 8 10 12 13 13 13 12 12 11 11 11 10 10 9 9 9 8 8 6 5 4 4 4 3 3 4 4 4 4 4 4 4 4 4 4 3 3 3 3 2 3 2 3 3 2 3 2
10 10 9 9 9 11 12 13 14 14 14 13 12 12 12 12 11 11 10 10 10 9 8 6 5 5 4 4 4 4 4 5 4 5 5 5 5 4 4 4 4 3 3 3 3 3 4 3 4 4 2 3
11 11 11 11 12 13 15 15 15 14 14 14 13 13 13 13 12 11 11 11 12 10 8 6 5 5 4 4 4 5 5 5 5 6 5 5 5 5 5 4 4 4 3 3 4 3 4 4 4 5 4 3
13 12 13 14 15 17 17 17 16 16 15 15 15 14 14 14 13 12 12 13 13 10 7 6 5 5 5 5 5 5 6 6 6 6 6 6 5 5 5 5 4 3 4 3 4 4 4 5 5 5 6 3
14 14 16 18 20 20 20 19 18 17 16 16 15 14 15 14 13 13 14 15 13 9 6 5 5 5 5 6 6 6 7 7 7 7 7 6 6 6 5 5 4 3 4 3 3 5 6 6 6 6 6 5
16 17 19 22 23 23 22 21 19 18 16 16 15 15 15 15 15 15 16 15 12 8 6 6 5 6 6 6 7 7 8 8 8 8 7 7 6 6 5 4 4 4 3 3 4 5 7 7 7 7 6 6
18 19 21 23 23 23 22 20 19 18 16 15 15 16 17 16 16 17 17 15 11 8 6 6 6 6 7 7 8 8 8 9 8 8 7 7 7 6 5 5 4 4 3 3 5 5 8 9 8 8 8 6
17 19 20 21 21 21 21 20 18 18 16 16 16 17 17 17 18 18 17 14 10 7 6 6 7 7 8 8 9 9 9 9 9 9 8 7 7 6 5 5 4 3 3 4 7 9 9 10 9 8 8 7
18 19 19 19 20 20 20 19 18 17 16 16 17 17 18 19 19 18 16 12 9 7 7 8 8 8 9 9 9 10 10 10 10 9 9 8 7 6 5 4 4 3 3 6 10 13 13 12 11 10 9 8
21 20 19 18 17 17 17 16 15 15 15 16 17 18 20 21 20 17 13 10 9 8 8 9 9 9 9 10 10 11 11 10 11 10 9 8 7 6 5 4 4 3 3 9 15 17 18 15 13 11 10 8
21 20 19 17 16 16 15 15 15 17 19 20 22 22 22 21 18 14 12 10 10 9 10 10 9 10 10 11 11 12 12 11 11 11 9 8 7 5 5 4 3 3 4 11 19 22 21 18 15 12 12 11
20 20 19 18 17 18 19 20 22 24 25 26 25 23 21 19 15 13 12 11 11 11 11 10 10 11 11 11 12 12 12 12 11 11 9 7 7 6 4 4 3 3 6 14 23 26 25 20 18 15 11 13
20 20 20 21 22 24 27 29 29 28 27 25 23 21 19 17 15 14 14 13 13 12 11 11 11 11 12 12 13 14 13 13 12 10 9 7 6 6 4 4 3 3 7 18 28 29 28 22 19 18 13 11
23 25 28 30 31 32 33 31 29 27 25 23 20 19 18 18 17 16 16 15 14 13 13 12 12 12 12 13 13 14 14 13 13 11 9 8 6 5 4 3 3 4 10 22 33 33 29 26 21 19 17 11
32 35 36 37 35 33 31 29 26 24 22 21 20 19 19 19 19 19 17 16 15 14 14 13 12 13 12 14 14 14 15 14 13 11 9 7 6 5 3 4 3 4 14 28 37 38 32 27 25 19 17 13
39 38 37 36 34 31 29 27 25 23 23 22 22 21 20 21 20 20 19 18 17 16 15 14 13 14 14 15 15 15 16 15 13 11 9 7 6 5 3 3 3 6 18 34 41 41 37 29 27 21 16 14
39 37 35 34 32 30 28 27 27 25 25 24 23 22 22 23 22 22 21 19 19 17 16 15 14 15 15 16 16 16 16 15 14 10 8 7 5 4 4 3 3 9 23 39 47 44 40 33 27 22 15 14
39 37 34 33 31 31 31 30 30 28 27 25 24 25 25 26 25 24 23 21 20 19 17 16 16 16 16 17 17 17 17 15 14 11 9 6 6 4 3 5 3 13 32 44 51 48 42 36 28 23 16 14
39 38 37 35 34 34 34 33 32 31 30 29 29 29 29 29 27 26 24 22 21 19 19 17 18 18 18 19 18 18 17 16 14 10 9 6 6 5 2 5 4 17 40 50 54 50 44 37 29 23 17 14
42 42 41 40 38 37 37 36 35 35 34 34 34 33 32 31 28 27 24 23 21 20 20 19 19 19 19 20 19 19 17 16 14 10 9 6 5 5 3 4 5 20 45 55 57 52 44 39 30 23 18 15
46 46 44 42 40 39 37 37 36 37 37 37 37 35 34 32 29 27 25 23 22 21 21 21 21 21 21 21 19 19 17 15 14 10 8 6 5 4 4 3 6 27 51 58 59 53 46 41 32 24 18 16
49 48 46 43 42 41 39 39 39 40 40 40 38 37 34 32 29 27 25 23 23 22 22 22 23 23 22 22 20 18 18 16 13 11 7 6 5 4 4 3 9 34 55 59 60 55 47 42 33 25 18 16
51 49 47 46 45 45 44 44 45 45 45 42 39 36 32 30 28 26 25 24 24 23 24 24 24 24 23 21 21 18 18 16 13 10 7 5 5 4 4 3 12 40 58 60 61 56 49 44 35 26 18 16
53 51 49 50 51 51 51 51 51 49 46 41 38 35 30 28 26 26 26 25 26 26 25 26 24 24 24 21 21 19 17 16 13 9 6 6 5 4 5 3 15 45 61 62 62 57 52 46 37 27 18 15
60 59 57 57 58 59 57 55 54 50 42 36 33 30 27 27 27 26 28 27 28 28 27 27 25 24 23 22 21 20 18 15 12 9 6 6 5 4 4 4 18 49 64 64 64 60 54 48 39 28 17 13
67 67 65 62 62 61 60 56 52 44 38 33 29 26 25 27 29 28 29 30 30 30 29 27 25 24 23 22 22 19 17 14 11 8 6 6 4 5 5 4 22 52 67 67 67 63 57 51 41 28 17 13
72 70 67 64 62 60 57 53 47 40 36 34 29 27 28 30 31 32 31 32 32 31 30 28 26 24 23 22 21 19 17 14 11 8 6 6 5 5 5 6 27 57 69 70 71 68 61 53 44 29 16 12
71 67 63 61 59 57 54 50 46 41 38 35 32 31 33 33 33 34 34 34 34 32 30 29 27 25 24 22 21 18 16 13 11 9 6 6 5 6 5 8 33 62 71 72 75 74 66 56 47 32 16 11

ECMWFFLT2_500_rhum_060.txt.gz
RH
2 3 3 4 4 5 6 6 6 6 6 6 6 6 5 6 6 7 7 8 8 9 9 9 9 9 9 8 8 7 7 7 6 6 5 4 4 3 3 3 3 2 3 2 2 2 2 2 2 2 2 2
4 4 4 5 6 7 7 7 8 8 7 7 7 7 7 7 8 8 9 10 10 10 10 9 10 9 9 9 8 8 8 8 7 6 5 4 3 3 3 3 3 3 3 3 2 2 2 2 2 2 2 2
5 7 7 8 8 8 8 9 9 9 9 8 8 8 8 9 10 11 11 12 11 11 10 10 10 10 10 9 9 8 8 8 7 5 4 4 3 3 3 3 3 4 3 3 3 3 2 3 2 2 2 2
6 7 8 9 9 9 9 9 9 9 9 9 9 10 11 12 12 13 13 13 13 12 12 11 11 11 11 10 9 9 9 8 7 5 4 3 3 3 4 4 4 4 4 3 3 3 3 3 3 3 2 3
7 8 8 9 9 10 10 10 10 9 10 10 11 12 13 14 15 15 15 15 14 13 13 13 12 12 12 11 10 10 9 8 6 4 4 3 4 4 4 5 5 4 4 4 3 3 3 3 3 3 3 3
9 9 9 9 10 10 10 10 10 10 10 11 12 14 15 16 17 17 17 16 16 15 14 13 13 13 12 11 11 11 10 8 6 4 4 4 4 4 5 5 4 5 4 4 4 4 4 4 4 4 4 4
11 11 10 10 10 10 10 10 10 10 10 11 12 14 16 17 17 17 17 16 16 15 14 13 13 13 13 12 12 11 10 7 4 4 4 4 5 5 5 5 5 4 4 4 4 4 4 4 4 4 4 4
11 11 11 11 11 10 10 10 10 10 11 11 12 14 16 17 16 16 15 15 14 13 12 12 13 14 13 13 12 11 9 6 4 4 5 5 5 6 5 5 5 5 5 5 5 5 5 5 5 5 5 5
12 12 12 11 11 11 11 11 10 11 11 11 12 13 14 14 14 13 13 12 11 11 12 13 14 14 13 13 13 11 7 5 5 5 6 6 6 6 6 6 5 6 6 5 6 6 6 6 5 5 5 5
12 12 12 12 12 12 12 12 11 11 11 11 11 11 12 12 12 11 11 11 11 13 14 14 14 13 14 13 12 9 6 5 6 7 7 7 7 7 7 7 7 6 7 7 7 7 7 7 6 6 6 6
13 12 13 13 13 13 12 12 12 12 11 11 11 11 11 11 11 11 11 12 13 14 14 14 14 14 13 11 9 7 6 7 7 8 8 8 8 8 8 7 8 8 8 8 8 8 8 7 7 7 6 6
14 13 13 14 14 14 13 13 13 12 12 12 12 13 13 13 14 14 14 15 15 15 15 15 14 12 11 8 7 7 8 8 9 9 9 9 9 9 9 9 9 9 9 9 9 9 8 9 8 8 8 7
16 15 16 17 17 17 17 17 17 18 19 19 19 19 20 20 20 19 19 18 18 17 16 15 13 10 9 8 8 9 10 10 10 11 11 11 11 10 10 10 10 10 10 10 10 10 9 9 9 9 9 8
18 19 19 19 20 21 23 25 26 27 27 27 27 26 25 24 24 22 21 20 18 17 15 13 11 10 9 9 10 10 11 12 12 12 13 13 13 12 12 12 12 12 12 12 11 11 11 10 10 10 9 9
19 20 21 23 27 30 32 33 33 33 32 30 29 27 26 24 23 21 19 18 16 14 13 11 11 10 10 11 11 12 13 14 14 14 15 15 15 14 14 14 14 13 13 13 13 12 12 12 12 11 10 10
20 22 25 29 33 34 35 34 33 31 29 28 26 24 23 21 19 18 17 15 14 13 12 12 11 11 12 12 13 14 15 15 16 17 17 17 17 16 16 16 15 15 15 15 15 14 13 14 13 12 12 10
22 26 29 32 33 33 32 31 30 28 27 26 25 24 23 22 20 19 18 17 16 15 14 14 14 14 14 15 16 16 17 18 18 19 19 19 19 19 18 18 18 17 17 17 16 16 15 15 15 14 13 11
26 29 31 33 33 33 32 32 31 30 30 30 29 29 28 26 25 24 23 22 22 21 20 19 18 19 19 19 20 20 21 21 21 21 21 21 20 21 21 20 20 20 19 19 18 18 17 17 16 15 14 12
30 32 33 34 35 35 35 35 34 33 33 33 33 32 31 30 29 28 27 26 25 24 23 23 22 22 23 23 23 24 25 25 25 24 24 23 23 22 23 23 22 22 21 21 20 20 19 18 18 16 16 13
33 34 35 36 36 37 38 37 36 36 35 35 34 33 32 31 30 29 29 28 27 27 26 25 25 25 26 26 27 27 28 28 28 27 27 26 26 25 25 24 24 24 23 23 22 22 21 20 19 17 17 15
34 35 37 38 38 38 39 39 38 38 37 37 36 35 35 33 32 32 31 31 30 29 29 29 29 30 30 30 31 31 31 31 30 30 30 29 28 27 27 26 26 26 25 25 24 23 23 21 20 19 17 16
35 36 38 40 41 41 41 41 41 41 40 40 39 38 39 38 37 37 36 35 34 33 34 35 35 35 35 35 35 35 34 34 33 32 32 31 30 29 29 28 27 28 27 27 26 24 24 22 21 20 18 16
35 36 38 40 42 42 42 41 41 42 42 42 42 42 43 44 43 43 41 39 38 38 39 40 40 40 39 39 37 37 37 36 35 34 33 32 31 30 30 31 30 30 29 28 28 26 25 24 23 21 19 16
34 35 37 39 41 43 44 44 43 43 45 45 46 46 46 46 46 46 44 43 41 41 42 42 43 43 42 41 40 39 38 37 36 34 34 33 33 33 32 32 32 32 31 29 28 27 26 25 23 22 19 16
34 35 38 41 44 48 49 49 48 48 49 49 49 47 46 45 45 45 45 44 43 42 43 43 44 44 43 42 41 41 40 38 37 35 35 35 34 35 34 34 34 33 32 30 29 28 27 26 24 22 18 16
37 39 43 47 50 53 54 54 53 51 51 49 48 47 46 45 44 44 44 43 43 42 42 42 43 44 44 43 42 41 40 38 37 36 36 36 36 36 36 36 35 34 33 31 30 29 27 26 23 21 18 14
44 49 53 55 56 56 56 54 51 49 47 45 44 43 42 42 40 40 40 40 40 40 40 41 42 43 43 43 42 41 41 39 39 38 38 37 37 38 37 37 36 34 34 31 31 29 27 25 22 20 17 13
55 60 62 61 59 56 53 51 49 46 44 41 38 36 34 31 30 29 28 29 31 32 34 35 36 38 39 41 41 41 41 41 40 39 39 39 39 39 38 37 36 35 33 31 30 29 26 24 21 18 15 12
65 66 63 60 56 53 50 48 45 41 37 33 29 26 23 21 18 16 15 15 16 17 19 21 24 26 29 33 36 39 41 42 41 40 40 39 39 39 38 36 35 34 32 30 28 27 25 23 21 17 14 11
68 64 58 55 51 48 45 41 36 31 27 23 20 17 15 13 11 9 7 7 6 7 7 8 10 12 14 18 23 29 34 38 40 39 38 38 37 36 35 34 33 31 29 28 26 24 23 21 19 16 13 11
63 57 53 49 44 40 35 30 25 21 18 15 12 11 9 8 7 6 5 4 4 4 4 4 4 4 5 6 9 14 20 27 32 35 34 34 34 32 32 31 30 28 26 25 23 22 21 20 18 15 12 10

ECMWFFLT2_500_rhum_066.txt.gz
RH
2 2 3 3 3 3 3 3 3 3 3 4 4 4 5 5 5 5 5 6 6 6 6 6 6 6 6 7 7 7 7 7 7 6 6 5 5 5 5 6 5 5 6 6 6 6 6 6 6 6 6 6
3 3 3 3 3 3 3 3 4 4 4 5 5 5 6 6 6 7 7 7 7 7 7 7 7 7 7 7 8 8 8 8 8 7 7 7 7 7 7 7 6 7 7 7 7 6 7 7 7 7 7 7
3 3 3 3 3 4 4 4 5 5 5 6 6 7 7 7 8 8 8 8 8 8 8 8 8 8 8 8 8 8 9 9 9 9 8 9 9 9 8 8 7 8 7 8 8 7 7 7 7 7 7 7
4 4 4 4 4 5 5 6 6 7 7 8 8 8 8 9 9 9 9 9 9 9 9 9 8 8 8 8 8 8 9 9 10 9 10 10 10 10 10 10 9 8 8 8 8 8 8 8 8 8 8 8
4 5 5 5 6 6 7 7 8 8 8 9 9 9 9 9 10 10 10 10 10 9 9 9 9 9 9 9 8 8 9 9 10 10 11 12 11 11 11 11 10 10 9 9 9 9 8 8 8 8 8 8
6 6 7 7 8 9 9 10 10 10 11 11 11 11 11 11 11 10 10 10 10 10 10 9 9 9 9 9 9 9 10 10 10 11 12 12 12 12 12 12 12 11 10 10 10 10 10 9 9 8 9 9
7 8 9 9 10 11 11 12 12 12 12 12 12 12 12 12 12 12 12 11 11 11 11 10 10 9 9 10 10 10 11 11 11 12 12 12 12 13 13 13 13 13 12 11 10 10 10 10 9 9 9 9
8 9 10 11 12 13 14 14 15 14 15 15 15 15 14 14 14 13 13 13 13 13 12 12 11 10 10 10 10 10 11 12 12 13 13 12 13 14 14 14 14 14 13 12 11 10 10 9 10 9 10 10
9 11 12 13 15 16 16 17 17 16 17 17 17 17 17 16 16 16 15 15 15 14 14 14 13 12 11 11 10 11 10 11 11 12 13 13 13 13 14 14 14 14 13 12 10 10 9 9 9 10 10 11
12 13 15 16 17 19 19 19 19 19 19 19 20 19 19 19 19 19 19 19 18 18 17 17 16 15 14 13 12 12 11 11 10 11 11 11 12 12 12 13 13 12 12 11 9 9 8 9 10 10 11 11
14 16 17 19 20 20 20 20 20 21 21 21 21 21 21 21 21 21 22 24 24 25 24 24 23 22 21 19 17 16 15 14 13 12 11 11 11 10 11 10 11 10 10 10 10 10 10 10 11 11 12 11
17 19 20 21 22 22 21 22 22 21 21 21 21 22 22 21 21 23 26 29 30 31 31 30 29 28 27 25 23 22 21 20 19 17 16 16 15 13 13 13 12 12 12 12 12 13 13 13 13 12 11 9
21 22 22 23 22 22 22 22 22 21 21 21 21 20 20 20 21 24 27 30 32 32 32 30 29 28 27 26 24 23 22 20 19 19 18 17 17 16 16 16 15 15 15 15 15 15 14 13 12 11 9 7
25 25 24 23 23 22 22 22 22 21 20 19 18 18 18 20 23 26 28 31 32 31 30 28 27 26 25 24 23 22 21 20 18 18 17 16 15 14 14 14 13 13 13 13 12 12 11 10 10 9 8 8
29 27 25 24 23 22 22 22 22 21 20 18 18 18 20 23 26 29 31 32 32 31 31 29 27 26 26 26 25 25 25 24 22 21 20 18 17 16 15 14 13 12 12 12 11 10 10 10 9 9 9 9
32 29 26 24 23 22 22 22 22 21 20 19 20 21 24 27 30 31 32 33 34 33 34 33 32 30 29 28 28 28 28 28 26 24 23 21 20 19 18 17 16 15 14 15 14 13 12 12 12 12 12 12
32 29 27 24 23 23 23 23 22 21 21 21 22 23 25 28 30 32 32 34 35 35 36 36 36 34 32 30 29 29 28 29 28 27 25 23 21 20 19 19 18 17 16 17 16 15 15 14 15 15 15 15
34 30 27 25 24 24 23 23 21 20 20 20 21 22 23 25 26 28 30 31 32 33 34 34 35 34 33 31 29 29 28 28 28 27 27 25 23 21 20 20 19 19 18 17 17 16 16 16 16 16 16 17
36 31 26 25 25 24 24 22 19 17 18 18 18 18 19 20 21 23 24 26 27 29 30 31 32 32 32 32 31 31 30 29 29 28 29 28 27 25 24 23 22 21 20 19 19 18 18 17 17 17 17 17
35 31 28 26 26 25 25 23 20 18 18 17 17 17 17 18 20 21 22 24 26 27 29 30 31 32 32 33 33 34 33 33 32 31 31 32 31 30 29 28 27 26 24 23 22 21 21 20 19 19 18 18
34 33 30 28 27 26 26 25 23 20 19 18 18 17 17 17 19 21 23 25 26 28 30 31 34 36 36 37 36 37 37 36 35 33 33 33 32 31 31 30 29 28 26 25 24 24 23 23 21 20 20 19
34 32 31 31 30 29 28 27 26 23 22 21 19 18 17 17 18 19 21 24 28 32 36 39 41 43 43 41 40 40 39 38 36 34 32 32 31 29 28 28 28 27 26 25 24 24 23 23 22 21 21 20
35 33 31 31 31 31 30 29 29 27 24 22 20 19 17 18 19 23 29 36 41 45 48 49 48 48 46 44 42 40 39 37 36 34 32 30 29 28 26 25 25 24 23 22 21 21 20 20 19 18 18 18
35 33 31 30 30 30 30 29 28 26 25 22 20 19 20 25 33 41 49 54 56 56 55 53 51 49 46 44 41 39 39 37 35 33 31 29 27 26 24 23 22 21 20 19 19 18 18 17 17 17 16 16
31 30 28 28 29 30 30 29 27 25 22 21 21 26 36 47 56 61 63 62 60 57 54 52 49 47 45 43 41 39 37 36 34 32 30 28 26 24 23 22 21 21 19 18 18 18 18 18 17 17 17 16
28 28 29 31 32 31 29 26 23 23 26 31 40 51 61 66 67 65 63 60 57 54 52 50 48 46 44 42 40 38 36 34 32 30 29 27 26 25 24 23 24 23 21 20 19 19 19 19 19 18 17 17
31 32 32 31 29 26 25 28 34 42 51 60 66 70 70 67 64 61 58 56 54 52 50 48 47 44 42 40 38 36 35 33 32 31 30 29 28 27 26 26 26 25 24 22 21 20 19 19 19 18 18 17
35 34 31 29 31 35 43 54 64 71 74 74 72 68 65 61 58 56 54 54 52 51 49 46 44 42 40 38 37 35 35 34 33 33 32 31 30 29 28 27 27 26 25 23 22 21 19 19 18 18 17 17
37 38 42 48 55 63 69 73 77 78 75 71 67 63 60 58 56 54 53 52 50 48 46 44 42 40 38 36 35 35 35 35 35 34 33 33 32 30 29 28 27 26 24 23 22 20 19 18 17 17 16 16
55 59 64 70 73 75 76 75 75 74 71 67 63 60 57 55 54 52 51 50 48 46 44 42 40 38 37 35 35 35 36 36 36 35 34 34 32 31 30 28 26 25 24 22 21 20 19 17 16 16 15 14
72 72 72 72 73 75 76 75 72 69 66 62 59 56 53 51 50 50 50 49 46 44 42 40 39 39 38 36 36 37 37 37 37 37 35 34 33 31 30 28 26 25 23 22 21 19 18 17 16 15 14 13

ECMWFFLT2_500_rhum_069.txt.gz
RH
3 3 3 3 3 3 3 3 3 3 3 3 3 3 3 3 3 3 3 3 3 3 3 3 4 4 4 4 5 5 5 5 5 5 4 4 4 4 4 4 5 5 4 4 4 5 5 5 5 5 5 5
3 3 3 3 3 3 3 3 3 3 3 3 3 3 3 3 4 4 4 4 4 5 4 5 5 5 5 5 6 6 6 6 6 6 6 6 5 5 5 5 6 5 5 5 5 5 6 6 6 6 6 6
3 3 3 3 3 3 3 3 3 3 3 3 3 4 4 4 5 5 6 6 6 6 6 6 6 6 7 7 7 7 7 8 8 7 7 7 7 6 6 6 6 7 6 6 5 5 6 6 7 7 7 7
3 3 3 3 3 3 3 3 3 3 3 4 4 4 5 5 6 7 7 8 8 8 8 8 8 8 8 8 8 8 8 8 8 8 8 8 8 7 7 7 7 7 7 7 7 6 6 7 7 8 7 7
3 3 3 3 3 3 3 4 4 4 4 4 5 5 6 6 7 8 9 9 10 10 10 10 10 10 9 9 9 9 9 9 9 9 9 9 9 9 8 8 8 7 8 8 8 7 7 7 7 7 8 8
4 4 4 4 4 4 4 4 4 4 5 5 6 6 7 8 9 10 10 11 12 12 12 12 12 12 11 11 11 11 11 11 10 10 10 10 10 10 10 10 9 9 8 8 8 8 9 8 8 7 8 8
4 4 4 4 4 5 5 5 5 6 6 7 7 8 9 10 11 12 13 14 14 15 15 15 15 14 14 13 13 12 12 12 12 11 11 11 11 11 11 11 11 11 10 9 9 9 10 9 9 9 8 9
5 5 5 5 5 5 6 6 7 7 8 8 9 10 12 13 14 15 16 16 16 17 18 18 17 17 16 15 15 14 14 13 13 13 12 12 12 11 12 13 13 13 13 12 11 11 10 10 10 10 9 10
6 6 6 6 6 7 7 8 8 9 10 11 12 13 14 16 17 17 18 18 18 19 19 20 20 20 19 18 17 16 16 15 14 14 14 13 12 12 12 12 13 14 15 15 14 13 12 11 11 11 11 10
6 6 6 6 7 8 8 9 10 11 12 14 15 16 18 19 20 20 20 20 20 21 21 22 22 22 21 21 20 20 20 18 18 16 16 15 14 13 12 12 12 13 14 15 15 14 13 13 12 12 12 12
7 7 7 7 8 9 10 11 13 14 16 17 18 19 21 22 23 23 23 23 22 22 22 23 23 22 21 22 24 26 28 27 26 24 23 21 19 17 15 14 13 12 12 12 13 13 13 13 13 13 12 12
7 8 9 10 11 11 12 14 15 18 19 20 21 22 23 24 25 25 24 24 23 22 21 21 20 20 20 22 26 31 35 37 36 34 32 31 29 27 24 21 19 16 14 12 12 11 11 11 11 12 11 11
9 11 12 13 14 15 16 17 19 21 22 23 23 24 24 25 25 26 25 23 22 20 19 18 18 18 20 23 27 31 35 38 40 39 37 36 34 32 31 30 27 25 23 20 17 15 14 12 10 10 9 9
12 13 15 17 18 19 20 22 24 25 25 25 24 24 24 24 25 25 24 23 21 20 19 19 19 20 23 26 28 31 34 36 38 38 38 36 34 32 31 30 29 28 27 24 23 21 20 18 15 13 11 11
15 17 19 21 23 24 26 28 29 29 28 26 25 24 23 24 24 24 23 23 22 20 20 20 21 23 26 29 31 32 34 35 36 37 37 36 34 33 31 30 29 27 27 26 23 22 21 20 18 17 16 15
21 23 26 28 30 31 32 33 32 31 29 28 26 24 23 24 24 24 23 23 21 20 20 21 22 24 27 30 31 32 34 35 35 36 36 36 36 36 35 33 32 29 29 30 27 24 23 21 20 19 17 16
29 32 35 37 38 39 39 38 36 35 33 32 30 26 25 25 25 25 24 22 20 19 20 20 20 22 24 26 28 30 32 33 34 35 36 36 36 37 37 37 35 32 31 31 29 28 26 24 24 22 20 19
39 41 43 44 44 44 44 42 40 38 36 36 34 31 28 27 27 26 26 23 19 19 19 19 19 19 20 21 23 25 27 28 30 32 33 33 34 34 35 35 35 34 33 31 29 28 27 26 26 24 23 22
42 44 45 45 45 45 45 43 41 39 38 38 36 34 32 30 29 29 28 26 23 21 19 19 19 18 17 18 19 20 21 23 25 26 28 29 30 30 31 31 31 31 31 30 29 28 26 25 25 24 24 23
42 42 42 43 43 42 42 41 39 38 38 37 35 34 34 32 32 31 30 29 27 25 24 22 22 20 18 17 16 17 18 20 22 23 25 26 27 27 28 28 27 28 27 27 28 27 27 26 25 24 24 23
40 40 39 38 39 38 39 39 37 37 37 36 35 34 33 32 31 30 29 29 28 28 27 25 23 22 19 18 16 15 15 16 17 19 20 22 24 23 24 26 27 27 27 26 27 28 29 29 27 26 26 25
39 37 36 34 34 35 35 35 33 33 33 33 33 32 31 29 28 27 26 26 26 25 25 23 22 20 18 17 16 16 18 19 20 20 20 23 26 25 23 27 29 29 28 26 26 28 30 30 29 28 28 27
35 33 32 31 31 32 32 31 30 29 29 29 29 28 28 27 27 26 25 24 23 22 21 20 19 19 19 20 22 26 31 34 35 34 32 32 35 33 30 29 31 31 30 28 27 28 30 29 28 28 28 27
32 32 32 33 34 34 34 34 34 33 32 31 30 29 29 29 28 26 25 23 22 21 22 23 26 30 35 37 40 44 49 51 50 48 45 43 42 41 39 36 34 34 31 29 30 30 30 30 29 28 27 26
35 36 37 38 38 38 40 43 44 43 40 36 32 29 27 26 26 26 27 28 31 35 40 46 51 56 59 59 57 58 58 57 55 52 50 47 44 43 42 40 39 36 32 30 31 30 29 29 29 28 27 26
40 39 37 35 35 36 38 43 45 45 44 40 36 34 35 37 40 44 48 53 57 61 65 68 69 69 68 65 62 60 57 55 53 51 49 47 45 43 41 41 41 38 34 32 31 31 29 29 29 28 26 25
36 34 32 32 34 36 40 46 51 54 58 59 59 60 61 62 64 66 67 69 69 69 69 69 67 66 63 61 59 56 54 53 51 50 48 46 45 43 41 40 40 39 36 34 32 30 29 28 28 28 27 25
38 41 45 49 53 56 60 64 67 69 70 71 71 70 69 67 66 64 63 63 62 62 61 60 59 58 56 55 54 52 51 50 49 48 47 46 44 42 41 40 39 39 37 35 32 30 28 26 26 26 28 28
58 61 63 64 65 65 64 64 64 63 62 61 60 60 61 60 59 56 54 53 53 52 51 52 51 51 51 50 50 49 48 47 47 47 46 45 43 42 40 39 38 38 38 37 34 31 29 27 25 25 26 27
67 64 61 58 57 57 56 55 54 52 49 49 50 52 54 57 57 56 53 51 50 49 48 47 47 46 46 46 46 45 45 45 45 45 45 45 44 43 42 40 38 39 40 39 38 36 34 30 28 26 26 26
61 57 56 57 58 58 55 51 49 49 49 50 50 50 50 51 51 50 48 46 45 44 43 43 43 43 43 43 42 42 42 43 44 45 46 47 47 46 46 43 41 41 42 42 41 40 38 36 32 30 28 27

ECMWFFLT2_500_rhum_075.txt.gz
RH
6 6 6 6 5 5 5 5 5 5 4 4 4 4 4 4 4 4 4 4 4 4 4 4 4 4 4 4 4 4 4 3 3 3 3 3 2 3 2 2 2 2 2 2 2 2 2 2 2 2 3 3
6 6 6 6 6 5 5 5 5 5 5 4 4 4 4 4 4 4 4 4 4 4 4 4 4 4 4 4 4 4 4 3 3 3 3 3 3 3 2 3 2 2 2 2 3 2 3 3 3 3 3 3
7 6 6 6 6 5 5 5 5 5 5 5 4 4 4 4 4 4 4 4 4 4 4 4 4 4 4 4 4 4 4 3 3 3 3 3 3 3 3 3 3 3 3 3 3 3 3 3 4 4 4 4
7 6 6 6 6 6 6 6 6 5 5 5 5 4 5 4 4 4 4 4 4 4 4 4 4 4 4 4 4 4 4 3 3 3 3 3 3 3 3 3 3 3 3 4 4 4 4 4 5 5 5 5
7 7 6 6 6 6 6 6 6 6 6 5 5 5 5 5 5 4 4 4 4 5 4 5 4 4 4 4 4 4 4 4 4 4 4 4 4 4 4 4 4 4 5 5 5 5 5 5 6 6 7 7
8 8 7 7 7 7 7 7 7 6 6 6 5 5 5 5 5 5 5 5 5 5 5 5 5 5 5 4 4 4 4 4 4 4 4 4 5 5 5 5 6 6 6 6 6 7 7 7 7 7 8 8
8 8 8 8 8 8 8 7 7 7 6 6 6 5 5 5 5 5 5 5 5 5 5 5 5 5 5 5 4 4 5 5 5 5 5 6 6 6 6 6 7 7 8 8 8 9 9 9 9 9 9 9
9 9 9 9 9 9 8 8 8 7 7 6 6 6 5 5 5 5 5 5 5 5 5 5 5 5 5 5 5 5 5 6 6 6 7 7 7 7 7 8 8 9 11 11 12 12 12 12 11 11 11 11
10 10 9 9 9 9 8 8 8 7 7 6 6 6 6 6 5 6 6 6 6 6 6 6 6 6 6 6 6 6 7 7 8 8 8 9 9 9 9 10 11 12 14 15 16 16 15 15 14 14 13 12
11 10 10 10 9 9 9 8 8 7 7 6 6 6 6 6 6 6 6 6 6 6 6 6 6 6 6 7 7 8 8 9 9 10 11 12 12 12 13 13 14 15 17 19 19 19 18 17 17 17 16 15
11 11 10 10 10 9 9 8 8 7 7 7 7 7 7 7 7 7 7 7 7 7 8 8 8 8 8 9 9 9 10 11 12 13 14 15 16 16 16 16 17 18 19 21 22 21 21 20 20 19 19 18
11 11 11 10 10 9 9 8 8 8 8 8 8 8 8 8 8 9 9 9 9 9 10 10 10 10 11 11 12 12 12 13 14 16 18 18 19 19 19 20 20 20 20 21 21 21 21 22 24 24 24 23
11 11 10 10 9 9 9 9 8 9 9 9 9 9 9 10 10 11 11 11 12 12 13 13 13 13 14 14 14 15 15 17 18 20 23 23 22 21 22 22 22 23 23 21 21 20 20 22 25 28 30 31
11 10 10 10 10 9 9 9 9 10 10 11 11 11 12 12 13 14 15 15 16 16 17 17 17 17 17 18 18 18 20 21 22 23 27 29 26 23 23 25 25 25 24 22 21 20 21 22 25 29 32 35
11 10 10 10 10 10 10 11 12 12 13 14 14 14 15 16 17 18 20 20 21 21 21 22 22 23 23 23 23 22 23 24 24 25 27 30 30 26 24 25 26 26 26 22 21 21 21 23 26 29 32 34
11 11 11 11 11 11 12 13 14 16 16 17 18 19 20 22 23 24 25 25 26 26 27 28 28 29 29 28 27 25 25 25 25 25 26 28 30 29 26 25 26 27 27 24 22 22 22 23 25 28 31 33
12 12 12 13 14 15 16 18 19 20 22 23 25 27 28 29 30 31 31 31 32 32 33 34 34 34 34 31 29 27 25 25 24 24 25 27 29 30 27 25 26 26 27 25 22 22 23 23 23 25 27 29
14 15 16 17 18 20 21 23 25 26 29 31 33 35 36 37 37 37 37 38 39 40 40 40 39 38 37 34 30 27 24 23 22 22 23 25 27 29 29 27 26 26 26 26 24 23 24 24 23 22 23 24
18 19 21 23 24 26 28 30 32 35 38 40 42 43 43 44 44 45 45 46 47 47 45 43 41 39 36 32 28 25 23 21 21 21 22 22 23 25 28 29 28 27 26 26 26 24 24 24 24 23 22 21
24 26 28 30 31 33 35 38 41 44 47 49 50 51 52 53 54 55 55 54 52 49 46 42 38 35 32 29 27 26 25 24 24 24 23 22 22 22 23 25 26 27 26 26 27 26 25 24 24 24 23 22
31 33 35 37 39 41 44 47 51 55 58 60 62 63 64 65 64 63 60 56 52 47 43 38 35 34 33 31 31 30 28 27 25 23 22 22 21 20 20 21 22 23 24 25 25 25 25 24 24 23 23 22
38 40 42 44 47 50 54 59 64 68 71 73 73 74 74 72 68 63 58 53 47 43 39 36 35 36 35 34 31 29 26 24 23 21 20 19 20 20 19 19 20 20 20 22 22 23 23 23 23 22 22 22
45 47 49 53 57 63 69 74 78 80 82 83 82 80 76 70 64 57 52 47 43 40 39 37 35 34 33 30 28 28 29 30 30 30 29 29 30 29 26 24 24 22 20 19 20 21 22 22 21 22 22 22
53 55 58 63 70 78 85 88 90 91 90 89 86 81 74 67 61 55 51 48 45 42 39 36 34 35 37 40 42 46 48 50 50 49 48 47 46 46 44 41 39 35 29 25 24 25 25 25 24 23 23 23
61 64 69 77 85 93 98 99 100 100 98 94 88 82 75 69 65 62 59 55 49 43 38 40 46 53 60 63 63 63 62 61 59 57 56 54 53 52 51 50 49 46 41 36 34 33 33 34 33 30 29 30
69 74 82 91 97 101 102 102 102 103 102 98 93 89 84 82 80 75 68 59 52 50 53 61 68 71 72 69 66 62 60 57 55 54 52 51 50 49 47 46 46 45 43 41 39 39 38 38 39 37 36 37
79 86 94 99 101 100 101 102 102 103 102 100 98 98 96 93 89 81 72 67 65 69 75 77 76 72 67 63 59 55 53 51 49 48 46 45 43 42 41 40 40 39 38 38 37 37 36 37 38 38 38 38
90 96 100 101 101 101 101 102 101 100 100 100 99 98 96 91 86 80 78 80 82 83 82 77 71 65 61 57 54 51 49 47 46 43 41 40 38 37 36 35 34 33 33 32 32 32 32 32 33 33 35 35
96 100 102 103 104 103 101 99 97 97 99 99 98 94 91 89 87 87 89 90 89 85 79 73 67 62 58 56 54 52 48 46 44 43 41 39 36 33 30 29 27 25 24 23 24 24 24 25 26 26 27 29
99 101 103 104 104 103 102 101 100 101 102 101 100 99 97 97 98 99 99 96 90 82 75 69 65 61 58 58 57 54 50 47 46 45 41 35 30 25 22 20 19 17 15 15 16 16 16 17 17 18 18 19
101 103 104 104 103 102 101 101 103 104 104 102 102 103 102 102 101 98 94 88 81 75 69 66 63 62 61 61 59 55 52 50 47 41 33 24 18 15 13 14 14 13 12 12 12 12 12 13 13 13 13 13

ECMWFFLT2_500_rhum_078.txt.gz
RH
3 3 3 3 3 3 4 4 4 4 5 5 5 5 5 5 5 5 5 4 4 4 4 4 4 4 4 4 4 4 4 4 4 4 4 4 4 4 4 4 4 4 4 4 3 3 3 3 3 3 3 2
3 4 4 4 5 5 5 5 5 5 5 5 6 6 5 5 5 5 5 5 5 5 4 4 4 4 4 4 4 4 4 4 4 4 4 4 4 4 4 4 4 4 4 4 4 4 3 3 3 3 3 3
5 5 5 6 6 6 6 6 6 6 6 6 6 6 5 5 5 5 5 5 5 5 5 4 5 4 5 4 4 4 4 5 4 5 5 5 5 4 5 4 4 4 4 4 4 4 4 3 3 3 3 3
6 6 6 6 6 6 6 6 6 6 6 6 6 5 6 5 5 6 5 5 5 5 5 5 5 5 5 5 5 5 5 5 5 5 5 5 5 5 5 5 5 5 4 4 4 4 4 4 3 3 3 3
6 6 6 6 6 6 5 5 6 5 6 6 6 6 6 6 6 6 6 6 6 6 6 6 6 5 5 5 5 5 5 5 5 5 5 5 5 5 5 5 5 4 5 4 4 4 4 4 4 4 4 4
6 6 6 6 5 6 5 5 6 6 6 7 7 7 7 8 8 8 8 8 7 7 7 6 6 6 6 6 5 5 5 5 5 5 5 5 5 5 5 5 5 5 5 5 4 4 4 4 4 4 4 4
6 6 6 6 6 6 6 6 7 7 7 8 8 9 9 9 9 9 9 8 8 7 7 7 6 6 6 6 6 5 5 5 5 5 5 5 5 5 5 5 5 5 5 5 5 5 5 5 5 4 4 4
6 7 7 7 7 7 7 8 8 9 9 10 11 11 11 10 10 9 9 8 8 8 7 7 7 6 6 6 6 6 6 6 5 6 6 5 6 5 5 5 5 5 5 5 5 6 5 5 5 5 5 5
8 8 8 8 9 9 10 10 11 11 12 12 12 12 11 11 10 10 9 9 8 8 8 7 7 7 7 6 6 6 6 6 6 6 6 6 6 6 5 6 6 6 6 6 6 6 6 6 6 6 6 6
8 9 9 9 10 11 12 13 13 13 13 13 12 12 12 11 11 10 10 9 9 8 8 8 7 7 7 7 7 7 6 6 6 6 6 6 6 6 6 7 7 7 7 8 8 7 7 7 7 8 8 8
9 9 9 10 11 12 13 14 14 13 13 13 13 13 12 12 11 11 10 10 9 9 9 8 8 8 8 8 7 7 7 6 6 6 7 7 7 8 8 9 9 9 9 9 9 9 9 9 9 9 10 10
9 9 10 11 12 13 14 14 14 14 14 14 14 13 12 12 11 11 11 10 10 10 10 9 9 9 9 8 8 8 8 7 7 8 8 9 10 10 11 11 11 11 11 11 11 10 11 10 11 11 11 12
10 11 11 12 13 14 14 15 15 15 15 14 14 14 13 12 12 12 11 11 11 11 11 11 11 10 10 10 9 9 9 9 10 11 11 12 12 13 13 13 13 13 13 13 13 13 13 13 13 13 13 14
11 12 13 14 14 15 15 15 15 15 15 15 14 13 13 13 13 13 13 13 13 13 13 13 13 12 12 12 12 12 13 13 14 14 14 14 14 15 15 15 15 16 16 16 16 15 16 16 16 16 15 16
13 14 15 15 15 15 16 16 16 16 15 15 14 14 14 14 15 15 15 16 16 17 16 16 16 16 16 17 17 17 18 18 18 18 18 18 18 18 18 18 19 19 19 19 19 18 18 19 20 19 18 18
15 15 15 16 16 16 16 17 16 16 16 16 16 16 16 17 18 18 19 20 21 21 21 21 21 22 23 23 24 24 24 24 23 23 22 22 22 22 22 22 22 22 22 22 21 20 20 21 22 22 21 20
16 16 17 17 17 17 17 17 17 17 17 18 18 19 20 21 22 23 24 25 26 27 27 28 29 30 31 30 31 31 31 30 29 28 28 27 27 26 25 25 24 23 22 22 21 21 21 21 24 26 24 22
18 18 18 18 19 19 19 19 19 20 21 21 22 23 24 26 27 28 29 31 32 33 35 36 37 38 38 38 38 38 37 36 35 34 33 32 30 29 28 26 24 22 20 19 19 19 20 20 22 26 28 25
20 21 21 22 22 22 23 23 24 25 26 27 28 29 31 32 33 34 35 37 39 41 42 43 45 45 45 45 45 45 43 42 41 39 37 35 33 30 28 25 22 20 19 19 19 20 21 20 20 23 28 29
25 26 26 27 28 28 29 29 30 31 33 35 36 37 38 39 40 42 43 45 47 49 50 51 53 54 54 54 54 53 50 48 46 42 39 35 32 29 26 24 24 23 22 22 22 22 22 22 20 20 22 27
31 32 32 33 34 34 35 36 38 40 42 44 45 46 47 48 49 51 52 54 55 58 59 61 62 63 64 63 61 59 56 52 48 42 38 35 32 30 28 28 28 27 26 24 23 23 22 21 21 20 20 21
37 38 38 39 40 41 44 46 49 51 53 54 55 56 57 58 59 60 61 63 65 68 70 72 73 74 74 72 68 64 59 54 48 42 38 35 34 33 33 32 30 28 25 23 22 22 22 21 20 20 20 19
43 43 44 46 48 51 54 57 61 63 64 64 64 65 66 67 68 69 71 73 76 80 83 85 85 84 82 77 72 65 59 52 47 43 40 38 37 36 33 30 28 27 28 29 31 34 35 34 32 30 28 25
48 49 52 55 59 63 67 70 71 72 72 73 74 74 75 75 76 80 83 86 90 93 95 96 94 91 86 79 71 63 56 50 46 44 42 39 36 33 32 33 37 41 44 47 48 51 52 50 49 48 44 40
56 59 63 68 73 77 80 80 81 81 81 82 84 84 84 86 89 93 96 97 99 100 100 100 97 93 87 78 69 61 54 50 48 46 42 39 37 40 45 51 56 58 59 58 57 56 55 54 54 53 52 50
67 71 76 81 85 89 91 91 92 93 93 94 95 95 95 96 98 99 100 100 100 101 100 98 94 88 82 75 68 62 58 55 53 51 48 48 52 58 63 67 68 66 63 59 57 55 53 52 51 50 50 50
80 84 89 93 96 98 100 100 100 101 101 102 102 101 100 100 100 100 100 100 101 101 100 96 91 86 82 78 75 72 70 67 63 62 63 66 70 73 74 73 70 67 62 58 55 52 50 49 48 47 47 46
90 95 98 101 101 101 102 101 101 102 101 101 102 101 100 100 100 100 100 100 100 100 100 98 95 93 92 91 88 85 82 78 75 74 76 77 78 76 73 70 66 62 58 55 52 49 47 45 44 43 43 42
97 100 101 101 101 101 100 101 100 100 101 101 101 101 100 100 100 100 100 100 100 100 100 100 99 98 96 94 91 87 84 81 80 81 82 81 79 74 69 64 61 57 54 52 49 46 43 42 40 39 39 38
101 102 101 100 100 100 100 100 100 100 100 100 100 100 100 100 100 100 100 100 100 100 99 99 98 97 95 93 90 88 86 85 85 86 85 81 77 72 66 61 58 56 53 51 48 45 43 40 38 37 36 34
102 102 101 100 100 100 100 100 100 100 100 100 100 100 100 100 100 100 100 100 100 100 100 100 100 100 99 97 96 95 93 91 89 85 81 76 71 66 62 59 57 55 53 51 48 46 43 40 37 35 33 30

ECMWFFLT2_500_rhum_081.txt.gz
RH
4 4 4 4 4 3 3 3 3 3 3 3 3 3 3 3 3 3 4 4 4 4 4 4 4 4 4 4 4 4 4 4 4 4 4 4 3 3 3 3 3 3 4 3 4 3 4 4 3 4 3 3
4 4 4 4 4 3 3 3 3 3 3 3 3 3 3 4 4 4 4 4 4 4 4 4 4 4 4 4 4 4 4 4 4 4 4 4 4 4 4 4 4 4 4 4 4 4 4 4 4 4 4 4
4 4 4 4 4 3 3 3 4 3 4 4 4 4 4 5 5 5 5 5 5 5 5 4 4 4 4 4 4 4 4 4 4 4 4 4 4 4 4 4 4 4 4 4 4 4 4 4 4 4 4 4
4 4 4 4 4 4 4 4 5 5 5 5 5 5 5 5 5 5 5 5 5 5 5 4 5 4 4 4 4 5 4 5 5 5 5 5 5 4 5 4 4 4 4 5 4 5 5 5 5 5 5 5
5 5 5 5 5 6 6 6 6 5 6 6 6 5 5 5 5 5 5 5 5 5 5 5 5 4 5 5 5 5 5 5 5 5 5 5 5 5 5 5 5 5 5 5 5 5 5 5 5 5 5 5
6 6 6 6 6 6 6 6 6 5 5 5 5 5 5 5 5 5 5 5 5 5 5 5 5 5 5 6 6 6 6 6 6 6 6 6 6 6 6 6 5 5 5 5 5 5 5 5 5 5 5 5
6 6 6 6 6 6 6 6 5 5 5 5 5 5 5 5 6 6 6 6 6 6 6 6 7 7 7 7 7 8 8 8 8 7 7 7 7 7 6 6 6 6 6 6 5 5 5 5 5 5 5 5
8 7 7 7 7 7 7 7 6 6 6 6 6 6 6 7 7 7 7 7 8 8 8 8 8 9 9 9 9 9 9 9 9 8 8 8 7 7 7 6 6 6 6 6 6 6 5 6 5 5 5 5
9 9 9 8 8 8 8 8 7 7 7 7 7 7 8 8 8 8 8 9 9 9 10 10 10 10 10 11 11 10 10 9 9 9 8 8 7 7 7 7 7 6 6 6 6 6 6 6 6 5 5 5
9 9 9 9 9 9 8 8 8 8 8 8 8 8 9 9 9 10 10 10 11 11 11 11 11 12 11 11 11 10 10 9 9 9 8 8 8 8 7 7 7 7 7 6 6 6 6 6 6 5 5 5
9 9 9 9 9 9 9 9 9 9 9 9 9 9 10 10 11 11 11 11 11 12 12 12 12 12 12 11 11 10 10 10 9 9 9 8 8 8 8 7 7 7 7 7 6 6 6 6 6 6 6 6
10 10 10 10 10 10 10 10 10 10 10 10 10 11 11 11 11 12 12 12 12 13 13 13 13 12 12 12 11 11 10 10 9 9 9 9 9 8 8 8 8 7 7 7 6 6 6 6 6 6 6 7
13 13 13 12 12 12 11 11 11 11 11 11 12 12 12 13 12 13 13 13 13 14 14 14 14 13 13 12 12 11 11 10 10 10 9 9 9 9 9 8 8 7 7 7 7 7 7 7 8 8 8 8
15 15 14 14 14 13 13 13 13 13 13 13 13 14 14 15 15 15 15 15 16 16 16 15 15 14 13 13 12 12 12 12 11 11 11 10 10 10 9 9 8 8 8 8 8 9 9 9 9 9 9 9
16 15 15 15 15 14 14 14 15 15 15 15 15 16 17 17 17 18 18 18 18 18 17 17 16 15 15 14 14 14 14 14 13 13 12 12 12 12 11 10 10 10 10 11 11 11 11 11 11 11 10 10
17 17 16 16 16 16 16 16 16 17 17 17 18 18 19 20 20 21 21 21 20 20 19 18 18 18 17 17 17 18 18 17 17 16 16 16 15 15 14 14 14 14 14 14 14 13 13 13 13 13 12 12
18 18 17 18 18 18 18 18 18 19 19 19 20 21 22 22 23 23 23 23 23 22 21 21 21 21 21 21 22 23 23 22 22 22 21 21 20 20 19 18 18 18 18 18 17 16 15 15 15 15 15 16
20 20 20 20 20 20 21 21 21 22 22 22 23 23 24 24 24 25 25 25 25 25 25 25 26 26 27 28 30 32 31 30 30 29 28 28 27 25 24 24 24 23 23 22 21 20 19 19 19 18 18 18
23 23 23 23 23 24 24 25 25 25 26 26 26 26 26 27 27 27 27 28 28 29 30 31 33 34 36 38 40 41 40 39 38 37 37 36 35 33 32 31 31 30 29 27 25 24 23 23 22 21 20 19
26 26 26 26 27 28 28 29 29 30 30 30 30 29 30 30 30 30 31 32 33 35 36 38 41 43 45 47 50 50 48 48 48 47 47 45 43 41 40 38 38 37 34 32 30 28 28 27 26 23 21 19
30 30 30 31 32 33 34 35 35 35 35 35 34 34 34 34 34 34 36 37 39 42 44 47 50 52 54 56 58 58 58 59 58 57 55 54 52 49 47 45 45 44 41 38 35 32 31 30 29 26 23 22
34 35 36 38 39 40 41 41 41 40 40 40 39 39 39 39 39 40 42 44 47 51 54 58 61 62 64 66 67 67 68 69 68 66 64 63 62 59 56 54 52 51 48 43 38 36 35 33 31 29 27 27
40 42 44 45 46 47 47 47 47 46 46 46 46 46 46 46 46 48 50 53 57 61 65 69 71 72 74 75 77 78 78 79 79 78 77 76 73 70 68 65 60 56 52 47 43 41 39 37 36 34 33 32
47 50 52 53 53 53 54 53 53 53 53 53 53 52 53 54 55 57 60 63 68 73 76 80 81 82 84 85 87 89 89 90 91 92 92 90 85 81 78 74 69 63 57 52 50 47 44 41 40 39 38 34
55 57 58 59 60 60 61 60 59 60 59 60 62 61 61 64 65 69 73 77 82 87 90 91 92 92 93 94 96 96 97 98 99 99 99 98 94 90 85 81 79 73 64 58 55 53 49 46 43 41 39 36
65 66 67 68 68 67 68 67 66 68 68 68 70 71 70 74 79 83 88 92 96 99 100 100 101 101 101 101 101 100 100 101 101 101 100 99 99 98 93 87 84 80 72 65 61 57 53 49 47 44 42 42
79 81 80 80 80 80 82 82 79 79 80 79 81 83 83 86 91 95 98 100 102 103 103 103 103 104 103 104 104 102 100 100 100 100 100 100 100 101 99 94 89 85 79 74 69 63 57 53 51 52 53 54
93 93 92 92 94 94 96 97 95 93 93 92 93 95 96 97 98 100 101 101 101 101 101 101 101 101 101 101 102 101 100 100 100 100 100 100 100 101 100 97 92 89 85 82 78 72 66 62 59 59 62 63
98 99 100 100 100 100 100 101 100 101 102 101 101 101 101 101 100 100 100 100 100 100 100 100 100 100 101 100 100 100 100 100 100 100 100 100 100 101 100 97 93 92 89 85 81 76 73 70 68 65 65 65
100 101 102 101 100 100 101 101 100 101 102 101 102 102 101 100 100 100 100 100 100 100 100 100 100 100 100 100 100 100 100 100 100 100 100 100 100 101 101 97 93 91 90 87 83 79 77 75 73 70 68 66
100 100 101 100 100 100 100 100 100 100 100 100 100 101 100 100 100 100 100 100 100 100 100 100 100 100 100 100 100 100 100 100 101 100 100 100 100 101 101 99 96 92 91 90 88 85 82 80 77 74 71 69